Showing default

LES 2, 1360

Orbit data source: Space-Track

LES 2, 1360 is a payload satellite owned by USAF SSD (US) in HEO that was launched on Thu, 06 May 1965 UTC via a TITAN IIIA launch vehicle from the Air Force Eastern Test Range (AFETR). Payload-class satellites include a variety of spacecraft equipped with specific instruments for various scientific and technological missions. These include communications satellites like Starlink; space stations such as the ISS; scientific satellites like the Hubble; Earth observation satellites from companies like Planet Labs, Umbra, and HawkEye 360; GPS; miniature CubeSats for education and research; and military/defense satellites.

Loading next visibility...
Identifier
1360, 1965-034B
Orbit
HEO
Country
Flag of USUS
Related business
Manufacturer
MIT-LL
Mission
Spacecraft
Bus & Motor
LES, STAR 13A
Mass
37 kg wet, 37 kg dry
Launch date (UTC)
1965-05-06 (61 years ago)
Launch vehicle
TITAN IIIA
Launch site
Air Force Eastern Test Range (AFETR)
Object type
Payload
Rocket body
Debris
Shape & HBR
POLY, 0.3 m
Radar Cross Section
Medium (>0.1 m² and <1 m²)

Expand to show TLE details & history
Last TLE update: 6 days ago

TLE from 6 days ago
0 LES 2
1 01360U 65034B   26248.33125894 -.00000044  00000-0  00000-0 0  9994
2 01360  32.2008 337.9586 3966171 120.5084 284.5495  4.64829717 41595
Epoch: 2026-09-05T07:57Z
TLE epoch observation values (Epoch: 2026-09-05T07:57:00.772Z)
Latitude
-0.00003°
Longitude
-125.73401°
Altitude
9,625.428 km
Speed
4.851 km/s
True Right ascension
22h 31m 50s
True Declination
0° 00' 00"
Sunlit
Object was in full shadow at epoch
Visualization orbit readout
Latitude
Unknown
Longitude
Unknown
Altitude
Unknown
Speed
Unknown
Apparent Right ascension
Unknown
Apparent Declination
Unknown
Sunlit
N/A
Visualization observer readout
Local Sidereal Time
14:55:49
Azimuth
Unknown
Elevation
Unknown
Doppler factor
Unknown
Orbital elements
Apogee altitude
14,806.056 km
Perigee altitude
2,774.106 km
Semi-major axis
15,168.218 km
Eccentricity
0.39662
Inclination
32.2008°
RAAN
337.9586°
Arg. of periapsis
120.5084°
True anomaly
239.52317°
Mean anomaly
284.5495°
Eccentric anomaly
262.04376°
Mean motion
1.16183 °/min
Orbital period
309.86 mins
BSTAR
0
Loading maneuver chart data...
Computing Atmospheric mass density...
Loading historical data...
Loading historical data...
Loading historical data...
Loading historical data...
Loading historical data...
Loading historical data...
Loading historical data...
Other satellites on launch #34 in the year 1965 (1965-05-06 UTC)

Documentation

Showing up to 5 results
|